Regional Weather Roundup
Issued by NWS

Home | Current Version | Previous Version | Text Only | Print | Product List | Glossary Off
Versions: 1 2 3 4 5 6 7 8 9 10 11 12 13 14 15 16 17 18 19 20 21 22 23 24 25 26 27 28 29 30 31 32 33 34 35 36 37 38 39 40 41 42 43 44 45 46 47 48 49 50

218
ASUS45 KCYS 091510
RWRWY

WYOMING REGIONAL WEATHER ROUNDUP
NATIONAL WEATHER SERVICE CHEYENNE WY
800 AM MST TUE FEB 09 2016

NOTE:  "FAIR" INDICATES FEW OR NO CLOUDS BELOW 12,000 FEET
WITH NO SIGNIFICANT WEATHER AND/OR OBSTRUCTIONS TO VISIBILITY.

WYZ001-091600-
YELLOWSTONE NATIONAL PARK

CITY           SKY/WX    TMP DP  RH WIND       PRES   REMARKS
LK YELLOWSTONE   N/A     13  10  88 CALM      30.58R
W YELLOWSTONE  NOT AVBL

$$
WYZ002>013-054>058-071-098>099-091600-
NORTHERN WYOMING

CITY           SKY/WX    TMP DP  RH WIND       PRES   REMARKS
JACKSON        CLEAR      3   1  92 N12       30.59S WCI -13
CODY           FAIR      27  18  69 SW3       30.35S
GREYBULL       FAIR      17  14  88 CALM      30.38F
WORLAND        FAIR      17  15  92 CALM      30.38S
SHERIDAN       FAIR      40  28  62 W12       30.28F WCI  33
BUFFALO        FAIR      40  26  57 E3        30.28F
GILLETTE       FAIR      35  28  75 W8        30.27R WCI  29
HULETT         PTSUNNY   32  27  80 SW7       30.26R WCI  26
NEWCASTLE      FAIR      32  27  80 NW8       30.24S WCI  25

$$
WYZ014>020-022>026-101>103-091600-
CENTRAL WYOMING

CITY           SKY/WX    TMP DP  RH WIND       PRES   REMARKS
BIG PINEY      FAIR      19  15  84 N9        30.47S WCI   8
PINEDALE       FAIR      30  21  69 NW21      30.44F WCI  17
DUBOIS         FAIR      41  12  30 W24G33    30.41R
LANDER         FAIR      24  12  60 CALM      30.38F
RIVERTON       FAIR      16  11  80 N3        30.40S
CASPER         FAIR      29  19  66 SW17      30.35R WCI  17
DOUGLAS        FAIR      31  21  66 NW15        N/A  WCI  20

$$
WYZ021-027>030-104>119-091600-
SOUTHERN WYOMING

CITY           SKY/WX    TMP DP  RH WIND       PRES   REMARKS
EVANSTON       FAIR      24  17  74 S8        30.54S WCI  15
FORT BRIDGER   SUNNY     34  25  69 W22       30.54S WCI  22
ROCK SPRINGS   FAIR      27  21  78 SW16      30.47S WCI  15
DIXON          FAIR      12   9  88 E8        30.54S WCI   0
RAWLINS        FAIR      27  18  69 SW18      30.44S WCI  14
SARATOGA       FAIR      10   5  79 CALM      30.46R
LARAMIE        FAIR      22  15  75 E7        30.36S WCI  13
CHEYENNE       FAIR      38  19  46 NW14G20   30.30F WCI  30
TORRINGTON     FAIR      34  23  64 NW10      30.27S WCI  26
PINE BLUFFS    FAIR      36  23  60 NW22      30.29S WCI  24

$$




USA.gov is the U.S. government's official web portal to all federal, state and local government web resources and services.